Showing default

IRIDIUM 137, 43076

Orbit data source: Space-Track

IRIDIUM 137, 43076 is a payload satellite owned by Iridium (US) in LEO that was launched on Sat, 23 Dec 2017 UTC via an FALCON 9 launch vehicle from the Air Force Western Test Range (AFWTR). Payload-class satellites include a variety of spacecraft equipped with specific instruments for various scientific and technological missions. These include communications satellites like Starlink; space stations such as the ISS; scientific satellites like the Hubble; Earth observation satellites from companies like Planet Labs, Umbra, and HawkEye 360; GPS; miniature CubeSats for education and research; and military/defense satellites.

Loading next visibility...
Identifier
43076, 2017-083G
Orbit
LEO
Country
Flag of USUS
Related business
Manufacturer
OATK SSG Gilbert
Mission
Operational Commercial Communications
Bus & Motor
ELITEBUS, Unknown motor
Mass
860 kg wet, 700 kg dry
Launch date (UTC)
2017-12-23 (8 years ago)
Launch vehicle
FALCON 9
Launch site
Air Force Western Test Range (AFWTR)
Object type
Payload
Rocket body
Debris
Shape & HBR
Trap Box + 2 Pan, 4.7 m
Radar Cross Section
14.423 m², Large (>1 m²)

Expand to show TLE details & history
Last TLE update: 22 hours ago

TLE from 22 hours ago
0 IRIDIUM 137
1 43076U 17083G   25259.99512905  .00000058  00000-0  13703-4 0  9993
2 43076  86.3910  76.3490 0002187  72.7577 287.3858 14.34217745405010
Epoch: 2025-09-16T23:52Z
TLE epoch observation values (Epoch: 2025-09-16T23:52:59.149Z)
Latitude
-0.00005°
Longitude
81.92511°
Altitude
780.251 km
Speed
7.464 km/s
True Right ascension
05h 05m 23s
True Declination
0° 00' 00"
Sunlit
Object was in daylight at epoch
Visualization orbit readout
Latitude
Unknown
Longitude
Unknown
Altitude
Unknown
Speed
Unknown
Apparent Right ascension
Unknown
Apparent Declination
Unknown
Sunlit
N/A
Visualization observer readout
Local Sidereal Time
14:51:40
Azimuth
Unknown
Elevation
Unknown
Doppler factor
Unknown
Orbital elements
Apogee altitude
776.196 km
Perigee altitude
773.067 km
Semi-major axis
7,152.769 km
Eccentricity
0.00022
Inclination
86.391°
RAAN
76.349°
Arg. of periapsis
72.7577°
True anomaly
287.36188°
Mean anomaly
287.3858°
Eccentric anomaly
287.37384°
Mean motion
3.58783 °/min
Orbital period
100.34 mins
BSTAR
0.000013703
Loading maneuver chart data...
Computing Atmospheric mass density...
Loading historical data...
Loading historical data...
Loading historical data...
Loading historical data...
Loading historical data...
Loading historical data...
Loading historical data...

Documentation

Showing up to 5 results
|